Location: IoMAS Observatory
(54.1780°N, 4.6265°W)
Time: 18:33:59
(UTC+02:00)

ISS - Visible Passes

Search period start: 24 July 2017 00:00
Search period end: 03 August 2017 00:00
Orbit: 400 x 408 km, 51.6° (Epoch: 25 July)

Date Brightness Start Highest point End Pass type
(mag) Time Alt. Az. Time Alt. Az. Time Alt. Az.
24 Jul -3.3 00:57:57 10° SW 01:00:59 37° SSE 01:04:01 10° E visible
24 Jul -3.8 02:34:00 10° W 02:37:12 55° S 02:40:24 10° ESE visible
24 Jul -3.2 04:10:25 10° W 04:13:23 32° SSW 04:16:20 10° SE visible
25 Jul -2.9 00:05:59 10° SW 00:08:50 28° SSE 00:11:41 10° E visible
25 Jul -3.8 01:41:47 10° WSW 01:44:58 53° S 01:48:10 10° E visible
25 Jul -3.5 03:18:06 10° W 03:21:12 41° SSW 03:24:18 10° SE visible
25 Jul -2.2 04:55:07 10° WSW 04:57:06 15° SW 04:59:06 10° S visible
25 Jul -2.5 23:14:12 10° SSW 23:16:42 21° SSE 23:19:13 10° E visible
26 Jul -3.7 00:49:35 10° WSW 00:52:44 48° S 00:55:54 10° E visible
26 Jul -3.7 02:25:49 10° W 02:28:59 49° S 02:29:17 47° SSE visible
26 Jul -3.4 23:57:26 10° SW 00:00:31 40° SSE 00:03:35 10° E visible
27 Jul -3.8 01:33:32 10° W 01:36:44 54° S 01:37:57 32° ESE visible
27 Jul -1.5 03:10:01 10° W 03:10:33 13° W 03:10:33 13° W visible
28 Jul -3.8 00:41:17 10° WSW 00:44:28 54° S 00:46:59 15° ESE visible
28 Jul -2.6 02:17:37 10° W 02:19:36 28° WSW 02:19:36 28° WSW visible
28 Jul -3.7 23:49:01 10° WSW 23:52:12 50° S 23:55:22 10° E visible
29 Jul -3.6 01:25:18 10° W 01:28:27 46° SSW 01:28:45 44° S visible
30 Jul -3.7 00:32:58 10° W 00:36:10 53° S 00:37:57 23° ESE visible
30 Jul -1.8 02:09:28 10° W 02:10:34 17° WSW 02:10:34 17° WSW visible
30 Jul -3.7 23:40:40 10° WSW 23:43:52 55° S 23:47:04 10° ESE visible
31 Jul -3.1 01:17:03 10° W 01:19:49 34° SSW 01:19:49 34° SSW visible
01 Aug -3.4 00:24:39 10° W 00:27:47 43° SSW 00:29:04 28° SE visible
01 Aug -1.2 02:01:32 10° WSW 02:01:41 11° WSW 02:01:41 11° WSW visible
01 Aug -3.6 23:32:18 10° W 23:35:28 51° S 23:38:21 12° ESE visible
02 Aug -2.3 01:08:52 10° W 01:10:57 22° SW 01:10:57 22° SW visible
